Tracking 19245 objects as of 17-Aug-2018
HD Live streaming from Space Station
objects crossing your sky now

GALAXY 10R

Track GALAXY 10R now!
GALAXY 10R is classified as:


NORAD ID: 26056
Int'l Code: 2000-002A
Perigee: 35,960.8 km
Apogee: 35,985.6 km
Inclination: 7.8 °
Period: 1,445.3 minutes
Semi major axis: 42344 km
RCS: 16.229 m2 (large)
Launch date: January 25, 2000
Source: United States (US)
Launch site: FRENCH GUIANA (FRGUI)

Digital and voice communications; 24 C-band< 24 Ku-band; North America.
aabbcc
Your satellite tracking list
Your tracking list is empty




NASA's NSSDC Master Catalog

Two Line Element Set (TLE):
1 26056U 00002A   18228.57951307 -.00000039 +00000-0 +00000-0 0  9992
2 26056 007.7652 049.2530 0002924 117.6488 086.3307 00.99634966067814
Source of the keplerian elements: AFSPC